When you browse on this site, cookies collect data to enhance your experience and personalize the content and advertising you see.
Visit our Privacy Policy to learn more. By continuing to use the site, you agree to this use of cookies and data.
  • In Austria
  • List of Countries
  • For 7 days
  • Water Temperature
  • Satellite Maps
  • Weather Map
  • News
  • Weather Widgets
  • user-avatar
    Login

    Hourly Weather Rosh Pina

    Today, 20 July, Saturday

    Time Temperature Precipitation Wind Pressure Humidity
    00:00 +21°C° 0 mm 1 mps 730 mmHg 89%
    01:00 +21°C° 0 mm 1 mps 729 mmHg 90%
    02:00 +21°C° 0 mm 1 mps 729 mmHg 90%
    03:00 +21°C° 0 mm 1 mps 729 mmHg 91%
    04:00 +20°C° 0 mm 1 mps 729 mmHg 91%
    05:00 +20°C° 0 mm 1 mps 730 mmHg 92%
    06:00 +23°C° 0 mm 1 mps 730 mmHg 82%
    07:00 +25°C° 0 mm 1 mps 730 mmHg 71%
    08:00 +28°C° 0 mm 2 mps 730 mmHg 59%
    09:00 +30°C° 0 mm 2 mps 730 mmHg 53%
    10:00 +31°C° 0 mm 3 mps 730 mmHg 47%
    11:00 +34°C° 0 mm 4 mps 730 mmHg 41%
    12:00 +34°C° 0 mm 5 mps 730 mmHg 42%
    13:00 +34°C° 0 mm 6 mps 730 mmHg 43%
    14:00 +34°C° 0 mm 7 mps 729 mmHg 44%
    15:00 +33°C° 0 mm 6 mps 729 mmHg 49%
    16:00 +30°C° 0 mm 6 mps 729 mmHg 54%
    17:00 +29°C° 0 mm 6 mps 729 mmHg 58%
    18:00 +27°C° 0 mm 5 mps 729 mmHg 69%
    19:00 +25°C° 0 mm 4 mps 729 mmHg 79%
    20:00 +23°C° 0 mm 2 mps 729 mmHg 89%
    21:00 +23°C° 0 mm 2 mps 729 mmHg 91%
    22:00 +23°C° 0 mm 2 mps 729 mmHg 92%
    23:00 +21°C° 0 mm 2 mps 729 mmHg 93%

    Tomorrow, 21 July, Sunday

    Time Temperature Precipitation Wind Pressure Humidity
    00:00 +21°C° 0 mm 2 mps 729 mmHg 93%
    01:00 +21°C° 0 mm 2 mps 729 mmHg 93%
    02:00 +21°C° 0 mm 2 mps 728 mmHg 93%
    03:00 +22°C° 0 mm 1 mps 728 mmHg 93%
    04:00 +22°C° 0 mm 1 mps 728 mmHg 93%
    05:00 +22°C° 0 mm 1 mps 728 mmHg 93%
    06:00 +24°C° 0 mm 1 mps 728 mmHg 83%
    07:00 +26°C° 0 mm 2 mps 729 mmHg 73%
    08:00 +28°C° 0 mm 2 mps 729 mmHg 63%
    09:00 +30°C° 0 mm 3 mps 729 mmHg 56%
    10:00 +33°C° 0 mm 3 mps 729 mmHg 48%
    11:00 +35°C° 0 mm 4 mps 729 mmHg 41%
    12:00 +35°C° 0 mm 5 mps 729 mmHg 41%
    13:00 +35°C° 0 mm 5 mps 729 mmHg 42%
    14:00 +35°C° 0 mm 6 mps 728 mmHg 43%
    15:00 +33°C° 0 mm 6 mps 728 mmHg 46%
    16:00 +32°C° 0 mm 5 mps 728 mmHg 50%
    17:00 +30°C° 0 mm 5 mps 728 mmHg 54%
    18:00 +28°C° 0 mm 4 mps 728 mmHg 64%
    19:00 +26°C° 0 mm 3 mps 728 mmHg 75%
    20:00 +23°C° 0 mm 2 mps 728 mmHg 85%
    21:00 +23°C° 0 mm 2 mps 728 mmHg 86%
    22:00 +23°C° 0 mm 1 mps 728 mmHg 87%
    23:00 +22°C° 0 mm 1 mps 728 mmHg 89%

    Day after tomorrow, 22 July, Monday

    Time Temperature Precipitation Wind Pressure Humidity
    00:00 +22°C° 0 mm 1 mps 727 mmHg 87%
    01:00 +22°C° 0 mm 1 mps 727 mmHg 86%
    02:00 +22°C° 0 mm 1 mps 727 mmHg 84%
    03:00 +21°C° 0 mm 1 mps 727 mmHg 85%
    04:00 +21°C° 0 mm 1 mps 727 mmHg 85%
    05:00 +18°C° 0 mm 0 mps 727 mmHg 85%
    06:00 +23°C° 0 mm 1 mps 727 mmHg 74%
    07:00 +26°C° 0 mm 1 mps 728 mmHg 62%
    08:00 +29°C° 0 mm 1 mps 728 mmHg 50%
    09:00 +31°C° 0 mm 2 mps 728 mmHg 46%
    10:00 +34°C° 0 mm 2 mps 728 mmHg 41%
    11:00 +36°C° 0 mm 3 mps 728 mmHg 37%
    12:00 +37°C° 0 mm 3 mps 728 mmHg 35%
    13:00 +38°C° 0 mm 4 mps 728 mmHg 33%
    14:00 +40°C° 0 mm 4 mps 727 mmHg 31%
    15:00 +38°C° 0 mm 4 mps 727 mmHg 33%
    16:00 +37°C° 0 mm 4 mps 727 mmHg 34%
    17:00 +35°C° 0 mm 4 mps 726 mmHg 36%
    18:00 +33°C° 0 mm 4 mps 726 mmHg 41%
    19:00 +30°C° 0 mm 3 mps 726 mmHg 46%
    20:00 +28°C° 0 mm 3 mps 726 mmHg 51%
    21:00 +27°C° 0 mm 3 mps 726 mmHg 52%
    22:00 +26°C° 0 mm 2 mps 726 mmHg 53%
    23:00 +26°C° 0 mm 2 mps 725 mmHg 54%

    23 July, Tuesday

    Time Temperature Precipitation Wind Pressure Humidity
    00:00 +25°C° 0 mm 1 mps 725 mmHg 59%
    01:00 +24°C° 0 mm 1 mps 725 mmHg 63%
    02:00 +23°C° 0 mm 1 mps 725 mmHg 68%
    03:00 +21°C° 0 mm 0 mps 725 mmHg 69%
    04:00 +21°C° 0 mm 0 mps 725 mmHg 70%
    05:00 +21°C° 0 mm 0 mps 725 mmHg 71%
    06:00 +24°C° 0 mm 0 mps 725 mmHg 59%
    07:00 +30°C° 0 mm 1 mps 726 mmHg 46%
    08:00 +33°C° 0 mm 1 mps 726 mmHg 34%
    09:00 +36°C° 0 mm 2 mps 726 mmHg 31%
    10:00 +38°C° 0 mm 2 mps 726 mmHg 28%
    11:00 +40°C° 0 mm 3 mps 726 mmHg 25%
    12:00 +41°C° 0 mm 4 mps 726 mmHg 25%
    13:00 +41°C° 0 mm 5 mps 726 mmHg 25%
    14:00 +41°C° 0 mm 6 mps 725 mmHg 25%
    15:00 +39°C° 0 mm 6 mps 725 mmHg 26%
    16:00 +38°C° 0 mm 6 mps 725 mmHg 28%
    17:00 +36°C° 0 mm 5 mps 725 mmHg 30%
    18:00 +33°C° 0 mm 4 mps 725 mmHg 40%
    19:00 +29°C° 0 mm 3 mps 725 mmHg 50%
    20:00 +26°C° 0 mm 2 mps 725 mmHg 60%
    21:00 +25°C° 0 mm 2 mps 725 mmHg 66%
    22:00 +25°C° 0 mm 2 mps 725 mmHg 73%
    23:00 +24°C° 0 mm 2 mps 725 mmHg 79%

    24 July, Wednesday

    Time Temperature Precipitation Wind Pressure Humidity
    00:00 +23°C° 0 mm 1 mps 725 mmHg 80%
    01:00 +23°C° 0 mm 1 mps 725 mmHg 81%
    02:00 +22°C° 0 mm 1 mps 725 mmHg 82%
    03:00 +22°C° 0 mm 1 mps 725 mmHg 83%
    04:00 +20°C° 0 mm 0 mps 725 mmHg 83%
    05:00 +19°C° 0 mm 0 mps 725 mmHg 84%
    06:00 +24°C° 0 mm 1 mps 726 mmHg 73%
    07:00 +27°C° 0 mm 1 mps 726 mmHg 62%
    08:00 +29°C° 0 mm 2 mps 727 mmHg 51%
    09:00 +32°C° 0 mm 2 mps 727 mmHg 44%
    10:00 +35°C° 0 mm 3 mps 727 mmHg 37%
    11:00 +37°C° 0 mm 4 mps 727 mmHg 30%
    12:00 +37°C° 0 mm 4 mps 727 mmHg 29%
    13:00 +39°C° 0 mm 5 mps 727 mmHg 27%
    14:00 +39°C° 0 mm 6 mps 727 mmHg 26%
    15:00 +36°C° 0 mm 5 mps 726 mmHg 30%
    16:00 +35°C° 0 mm 5 mps 726 mmHg 34%
    17:00 +33°C° 0 mm 4 mps 726 mmHg 37%
    18:00 +30°C° 0 mm 4 mps 726 mmHg 47%
    19:00 +27°C° 0 mm 3 mps 726 mmHg 56%
    20:00 +25°C° 0 mm 2 mps 726 mmHg 66%
    21:00 +24°C° 0 mm 2 mps 726 mmHg 66%
    22:00 +24°C° 0 mm 1 mps 726 mmHg 66%
    23:00 +23°C° 0 mm 1 mps 726 mmHg 65%

    25 July, Thursday

    Time Temperature Precipitation Wind Pressure Humidity
    00:00 +22°C° 0 mm 1 mps 726 mmHg 66%
    01:00 +22°C° 0 mm 1 mps 726 mmHg 67%
    02:00 +21°C° 0 mm 1 mps 726 mmHg 68%
    03:00 +21°C° 0 mm 1 mps 726 mmHg 69%
    04:00 +19°C° 0 mm 0 mps 726 mmHg 69%
    05:00 +19°C° 0 mm 0 mps 726 mmHg 69%
    06:00 +24°C° 0 mm 1 mps 727 mmHg 60%
    07:00 +27°C° 0 mm 1 mps 727 mmHg 51%
    08:00 +29°C° 0 mm 1 mps 728 mmHg 42%
    09:00 +31°C° 0 mm 2 mps 728 mmHg 36%
    10:00 +34°C° 0 mm 2 mps 728 mmHg 31%
    11:00 +36°C° 0 mm 3 mps 728 mmHg 26%
    12:00 +37°C° 0 mm 4 mps 727 mmHg 26%
    13:00 +37°C° 0 mm 4 mps 727 mmHg 27%
    14:00 +39°C° 0 mm 5 mps 727 mmHg 28%
    15:00 +36°C° 0 mm 5 mps 727 mmHg 30%
    16:00 +35°C° 0 mm 5 mps 726 mmHg 32%
    17:00 +34°C° 0 mm 5 mps 726 mmHg 34%
    18:00 +30°C° 0 mm 4 mps 726 mmHg 42%
    19:00 +27°C° 0 mm 3 mps 726 mmHg 51%
    20:00 +24°C° 0 mm 2 mps 726 mmHg 59%
    21:00 +24°C° 0 mm 2 mps 726 mmHg 59%
    22:00 +23°C° 0 mm 2 mps 726 mmHg 58%
    23:00 +23°C° 0 mm 1 mps 726 mmHg 57%
    Show more